Regional Weather Roundup
Issued by NWS

Home | Current Version | Previous Version | Graphics & Text | Print | Product List | Glossary Off
Versions: 1 2 3 4 5 6 7 8 9 10 11 12 13 14 15 16 17 18 19 20 21 22 23 24 25 26 27 28 29 30 31 32 33 34 35 36 37 38 39 40 41 42 43 44 45 46 47 48 49 50

512
ASUS45 KBOU 231307
RWRCO

WEATHER ROUNDUP FOR COLORADO
NATIONAL WEATHER SERVICE DENVER/BOULDER CO
700 AM MDT SAT JUL 23 2016

NOTE: "FAIR" INDICATES FEW OR NO CLOUDS BELOW 12000 FEET WITH NO
SIGNIFICANT WEATHER AND/OR OBSTRUCTIONS TO VISIBILITY.

COZ001>005-013-030-031-231400-
...NORTHWEST COLORADO...

CITY           SKY/WX    TMP DP  RH WIND       PRES   REMARKS
CRAIG          FAIR      54  46  74 CALM      30.27R
HAYDEN         FAIR      57  43  58 E10       30.29R
MEEKER         FAIR      55  48  77 MISG      30.29R
MOUNT WERNER   NOT AVBL
STEAMBOAT SPGS FAIR      51  46  82 CALM      30.32R
WALDEN         FAIR      52  41  66 SE6       30.39S
$$

COZ006>008-011-231400-
...WEST CENTRAL VALLEYS...

CITY           SKY/WX    TMP DP  RH WIND       PRES   REMARKS
GRAND JUNCTION FAIR      68  54  60 SE7       30.16R
MONTROSE       FAIR      60  49  66 SE6       30.27R
EAGLE          CLEAR     54  46  76 CALM      30.36R
RIFLE          FAIR      60  52  74 CALM      30.24R
DELTA          FAIR      64  54  68 NE5       30.23R HAZE
NUCLA          NOT AVBL
$$

COZ017>023-064>068-231400-
...SOUTHWEST COLORADO...

CITY           SKY/WX    TMP DP  RH WIND       PRES   REMARKS
DURANGO        FAIR      59  47  64 NW5       30.29S
CORTEZ         FAIR      58  47  66 CALM      30.24S
PAGOSA SPRINGS FAIR      62  44  52 CALM      30.36S
TELLURIDE      FAIR      53  43  69 SE5       30.51R
WOLF CREEK PAS FAIR      54  34  47 N5        30.71S
$$

COZ009-010-012-014-032>034-037-058>063-231400-
...CENTRAL COLORADO...

CITY           SKY/WX    TMP DP  RH WIND       PRES   REMARKS
ASPEN          FAIR      52  45  77 SW6       30.39R
BUENA VISTA    FAIR      56  43  61 CALM      30.39R
COPPER MTN     FAIR      54  37  54 CALM      30.69S
BERTHOUD PASS  PTSUNNY   43  30  61 N17G24    30.71S
COTTONWOOD PAS FAIR      61  37  41 W6        30.51S
GUNNISON       FAIR      48  43  81 CALM      30.45S
KREMMLING      FAIR      46  43  87 CALM      30.41S
LEADVILLE      FAIR      44  40  85 NE7       30.52R
MONARCH PASS   FAIR      48  36  61 NW13G21   30.78R
SALIDA         FAIR      59  47  63 NW5       30.43R
SUNLIGHT       FAIR      59  37  44 CALM      30.62S
WILKERSON PASS FAIR      54  34  47 NW7G17    30.64R
$$

COZ069>075-231400-
...SAN LUIS VALLEY/SANGRE DE CRISTO MOUNTAINS...

CITY           SKY/WX    TMP DP  RH WIND       PRES   REMARKS
ALAMOSA        FAIR      57  49  74 CALM      30.35R
LA VETA PASS   FAIR      54  43  66 S7        30.52R
SAGUACHE       FAIR      55  45  67 NW9       30.39S
$$

COZ035-036-038>040-231400-
...NORTHERN COLORADO FRONT RANGE...

CITY           SKY/WX    TMP DP  RH WIND       PRES   REMARKS
DENVER INTL AP FAIR      71  47  42 SW10      30.10S
DMNS CITY PARK   N/A     69  48  46 S6G12     30.11S
AURORA         MOSUNNY   68  48  49 S8        30.14R
FRONT RANGE AP MOSUNNY   73  46  38 SW8       30.12
ERIE MUNI ARPT FAIR      61  55  78 SW3       30.08S
BOULDER MUN AP FAIR      68  50  52 CALM      30.09R
CENTENNIAL     FAIR      69  45  41 SW5       30.15R
BROOMFIELD     MOSUNNY   72  43  35 CALM      30.13R
LONGMONT       FAIR      64  54  70 CALM      30.10S
$$

COZ041-046-047-076>085-087-088-231400-
...PIKES PEAK/PALMER DIVIDE AND SOUTHERN FOOTHILLS...

CITY           SKY/WX    TMP DP  RH WIND       PRES   REMARKS
COLO. SPRINGS  PTSUNNY   74  43  32 N10       30.18R
A. F. ACADEMY  FAIR      64  44  47 N7        30.21R
SCHRIEVER AFB  NOT AVBL
ELLICOTT       FAIR     N/A N/A N/A N5        30.15R
FALCON         FAIR      71  40  32 NW8       30.23S
FORT CARSON    FAIR      66  46  48 NW8       30.14R
LIMON          FAIR      69  47  45 NW8       30.10R
MONUMENT HILL  FAIR      63  46  55 W7        30.26S
TRINIDAD       NOT AVBL
$$

COZ042>045-048>051-090-091-231400-
...NORTHEAST COLORADO...

CITY           SKY/WX    TMP DP  RH WIND       PRES   REMARKS
GREELEY ARPT   FAIR      64  63  94 CALM      30.07S
AKRON          FAIR      68  60  75 SW7       30.05R
BURLINGTON     FAIR      68  61  78 E3        30.00S
WRAY           NOT AVBL
STERLING       FAIR      68  66  94 SE3       30.00S
HOLYOKE        FAIR      72  64  78 W8        30.00R
FORT MORGAN    FAIR      69  62  78 W3        30.06R
$$

COZ086-089-092>099-231400-
...SOUTHEAST COLORADO...

CITY           SKY/WX    TMP DP  RH WIND       PRES   REMARKS
PUEBLO         FAIR      73  51  46 W9        30.06R
LA JUNTA       FAIR      74  51  44 W13       30.00R
LAMAR          FAIR      73  57  57 CALM      29.95R
SPRINGFIELD      N/A     68  50  52 S8        30.02R
$$




USA.gov is the U.S. government's official web portal to all federal, state and local government web resources and services.